Location: Albany
(35.0000°S, 118.0000°E)
Time: 07:09:42
(UTC-05:00)

Cosmos 1626 - Visible Passes

Search period start: 12 December 2017 00:00
Search period end: 22 December 2017 00:00
Orbit: 495 x 499 km, 82.5° (Epoch: 11 December)

Date Brightness Start Highest point End Pass type
(mag) Time Alt. Az. Time Alt. Az. Time Alt. Az.
12 Dec 4.5 09:23:26 10° SSE 09:24:46 18° SE 09:24:46 18° SE visible
13 Dec 4.6 09:03:07 10° SSE 09:04:12 14° SE 09:04:12 14° SE visible
13 Dec 5.0 10:38:03 10° SW 10:38:50 14° SW 10:38:50 14° SW visible
14 Dec 4.8 08:43:14 10° SE 08:43:38 11° SE 08:43:38 11° SE visible
14 Dec 4.7 10:16:54 10° SSW 10:18:16 19° SW 10:18:16 19° SW visible
15 Dec 4.3 09:55:54 10° SSW 09:57:43 25° SSW 09:57:43 25° SSW visible
16 Dec 3.9 09:35:01 10° S 09:37:11 32° SSW 09:37:11 32° SSW visible
17 Dec 3.5 09:14:13 10° S 09:16:39 37° S 09:16:39 37° S visible
18 Dec 3.4 08:53:32 10° S 08:56:08 34° SE 08:56:08 34° SE visible
19 Dec 3.5 08:32:58 10° SSE 08:35:38 28° ESE 08:35:38 28° ESE visible
19 Dec 5.1 10:09:33 10° WSW 10:10:16 12° WSW 10:10:16 12° WSW visible
20 Dec 3.8 08:12:35 10° SSE 08:15:09 20° ESE 08:15:09 20° ESE visible
20 Dec 4.6 09:47:55 10° SW 09:49:47 18° WSW 09:49:47 18° WSW visible
21 Dec 4.2 07:52:27 10° SE 07:54:34 14° ESE 07:54:41 14° ESE visible
21 Dec 4.0 09:26:40 10° SSW 09:29:19 26° WSW 09:29:19 26° WSW visible
